Wetbulb
65.10 64.71 64.08 62.93 62.76 63.53 61.98 60.76 59.92 60.32 60.42 57.99 57.93 57.28 57.86 56.18 56.45 52.70 51.22 53.69 52.59 52.00 51.30 51.51 52.50 50.98 48.89 51.63 51.26 51.08 51.72 51.55 48.84 49.45 50.89 49.94 50.29 48.61 49.60 50.52 50.58 48.12 48.23
65.24 64.87 63.97 63.14 63.84 64.27 63.08 61.42 60.45 60.02 59.72 59.18 59.01 57.91 57.31 57.60 56.06 54.37 53.67 54.22 53.32 50.93 51.71 50.82 52.52 52.84 51.27 51.25 51.52 51.05 50.97 51.90 50.02 46.96 48.87 48.10 46.50 47.31 47.04 47.48 48.04 49.55 46.45
64.46 63.37 62.42 62.26 62.08 61.73 61.85 60.24 59.98 59.82 57.57 57.07 58.15 56.90 57.05 58.43 56.83 56.35 55.82 55.10 54.98 53.48 52.51 52.33 51.93 52.58 50.99 51.58 51.41 51.23 50.99 52.08 50.47 48.92 47.07 46.53 46.55 46.30 45.89 46.44 46.87 45.21 47.87
63.90 62.27 61.68 61.31 61.73 61.57 60.63 60.91 60.11 58.25 56.71 56.23 56.27 56.38 56.64 57.93 57.75 56.81 56.28 56.09 55.07 54.45 53.79 53.28 53.11 52.83 51.92 51.72 52.07 51.45 51.39 49.94 49.74 47.75 46.79 43.49 43.54 44.28 44.01 42.76 41.09 41.79 42.70
64.04 62.19 61.76 62.85 62.44 61.53 60.73 62.14 61.44 60.31 58.83 58.21 57.76 57.91 57.27 57.35 57.03 56.67 56.61 56.08 55.82 55.53 54.66 54.17 53.80 54.08 55.19 53.90 52.80 51.62 51.17 50.23 48.40 45.68 42.89 41.48 43.02 41.64 40.59 41.25 39.24 39.94 41.67
63.04 62.82 62.87 62.60 62.38 61.62 60.71 60.53 61.65 61.18 60.54 59.67 58.75 58.36 58.03 58.03 54.16 53.25 55.89 56.67 56.28 55.71 52.73 53.49 53.57 54.98 54.28 53.49 53.32 53.61 52.43 48.82 46.24 46.17 44.07 41.67 40.15 41.71 40.64 40.44 39.74 38.03 36.93
60.01 61.75 61.32 60.43 60.66 60.53 61.49 60.55 61.56 61.24 60.78 60.08 59.63 58.94 58.14 58.35 53.09 51.41 52.54 56.45 56.39 54.60 53.38 53.00 52.85 54.18 53.48 53.34 52.57 52.41 51.58 51.10 51.23 48.21 44.59 41.92 41.22 43.42 41.77 39.21 38.29 37.67 37.47
56.52 59.60 60.46 60.09 59.18 59.23 58.77 58.51 58.09 57.35 57.50 56.85 56.97 56.91 57.99 58.31 52.56 50.11 50.56 54.37 54.76 53.85 53.90 52.82 52.67 52.36 52.34 52.13 51.43 51.02 51.06 51.21 51.31 51.39 47.24 45.52 44.79 46.33 43.41 41.52 39.92 38.89 39.46
54.12 54.54 56.46 56.40 54.68 55.42 57.71 57.42 57.25 56.89 57.11 57.26 57.20 57.18 57.82 57.41 50.96 49.15 49.31 53.26 54.43 53.15 52.82 52.49 51.69 51.26 49.15 47.68 50.74 50.02 50.14 51.22 52.82 51.01 48.36 46.35 45.29 45.75 45.31 41.14 39.52 37.77 36.73
53.09 55.06 55.48 56.06 55.06 53.78 53.77 56.15 56.49 56.95 57.51 57.62 57.00 57.30 55.77 56.69 51.74 48.38 47.76 53.34 52.53 51.40 51.37 51.53 49.95 50.17 47.13 46.07 49.13 49.55 48.60 49.79 49.81 46.37 45.93 45.40 45.04 44.84 46.69 42.10 42.74 39.38 36.65
54.92 54.22 53.10 52.94 52.84 53.66 53.47 54.41 54.65 55.74 56.45 56.63 55.99 55.57 55.93 55.43 54.43 46.53 44.70 52.19 52.34 50.79 50.28 50.25 50.86 46.71 44.97 44.40 45.03 49.13 47.88 49.06 47.64 44.33 43.75 42.42 42.84 42.53 42.82 43.48 43.89 41.26 38.50
55.03 54.52 54.55 54.31 54.58 54.07 51.77 52.95 53.46 53.83 53.56 53.84 52.80 54.77 55.29 54.23 50.19 45.80 43.67 46.82 49.80 50.83 50.48 50.89 50.78 46.08 44.63 44.16 44.85 44.80 44.01 45.83 43.56 40.97 39.02 37.99 38.65 40.42 42.67 43.26 43.30 43.05 43.14
55.04 54.08 54.44 55.17 54.32 53.47 52.14 51.05 50.12 50.85 51.21 53.27 53.01 52.77 53.72 54.26 53.50 46.35 43.51 44.75 47.04 50.68 51.45 50.29 47.58 45.33 43.76 43.54 43.28 43.10 43.20 44.66 42.98 39.10 37.78 37.28 38.56 41.93 42.72 43.69 44.79 42.74 42.88
52.20 51.81 52.18 51.96 50.38 51.88 53.30 51.93 51.09 51.11 50.74 50.92 51.71 51.97 51.32 50.74 52.67 50.84 47.02 46.44 47.07 50.11 50.07 50.04 48.60 46.64 44.84 44.94 44.64 44.17 43.93 43.21 41.17 38.58 37.66 38.05 40.11 42.30 44.05 43.54 41.57 40.87 40.09
51.76 51.22 50.05 50.40 49.82 50.03 50.07 49.32 49.50 49.96 49.49 51.20 51.68 49.92 49.58 51.52 52.22 49.37 47.80 48.16 49.32 48.93 49.37 48.99 46.98 45.20 45.24 45.18 44.43 44.34 42.91 41.31 40.02 40.84 40.68 40.34 41.17 41.61 40.63 40.53 40.86 40.73 38.11
47.62 47.06 45.85 46.68 47.09 47.20 46.31 47.26 43.95 44.16 43.26 42.33 41.11 43.48 50.26 47.42 46.22 43.50 43.50 43.14 43.50 43.50 48.27 47.51 45.19 44.80 45.57 45.64 45.14 44.41 41.58 42.22 39.85 40.14 40.10 40.32 40.04 39.52 40.60 40.01 39.89 37.49 36.29
44.43 44.88 44.84 46.04 46.54 45.54 45.83 45.97 44.73 45.67 44.70 42.58 42.23 42.05 42.23 46.38 43.32 42.05 41.69 41.32 40.96 42.74 47.20 46.32 45.06 43.69 43.27 42.38 41.37 41.32 41.58 41.40 40.90 40.75 40.53 39.16 38.40 39.69 39.47 39.34 39.31 38.52 37.42
45.89 45.02 44.91 45.13 45.86 46.32 46.97 47.99 47.13 45.35 44.41 44.97 43.09 43.32 42.41 42.77 42.41 40.78 40.42 41.93 43.73 40.58 43.18 42.42 42.19 42.43 41.44 40.71 39.53 38.78 39.14 38.51 38.22 38.01 38.23 38.30 39.45 40.08 39.69 39.50 39.25 38.26 38.32
47.17 46.73 47.57 48.17 46.09 45.43 46.16 46.37 45.67 45.83 45.85 47.34 45.57 43.43 42.13 42.20 40.78 40.58 39.95 46.98 46.27 44.96 43.52 42.70 42.28 40.92 40.22 39.27 39.24 38.88 38.02 37.53 37.15 37.28 37.72 38.23 38.44 38.11 37.09 37.08 38.23 36.94 37.14
47.27 45.74 44.79 48.53 47.65 46.13 45.48 45.65 45.85 46.03 45.33 44.55 44.30 42.40 44.13 43.73 45.69 45.29 45.71 47.07 44.23 41.65 41.19 41.60 41.93 41.01 39.45 38.90 37.66 37.27 36.83 36.73 36.99 36.87 37.07 36.97 36.58 36.16 34.89 33.92 34.34 37.44 38.65
48.16 47.14 44.38 45.95 45.00 46.13 46.36 45.98 46.71 47.18 45.60 44.08 46.01 45.35 38.79 46.24 47.27 47.15 47.72 44.42 44.01 42.04 40.29 41.24 40.46 39.69 38.93 37.62 37.54 36.56 36.04 35.85 36.41 36.28 35.55 34.45 33.56 32.39 32.99 36.03 36.34 38.29 38.46
47.61 46.73 46.25 45.75 45.55 46.47 48.03 48.73 47.81 46.71 47.49 48.19 45.91 42.22 36.07 46.91 46.53 46.13 43.67 42.85 43.08 43.20 42.31 41.96 39.81 38.46 37.36 36.99 36.25 35.18 34.45 34.63 35.40 34.74 33.57 33.38 33.25 33.32 33.72 36.00 36.23 36.00 35.54
46.29 47.18 46.95 46.16 48.51 45.68 46.87 44.80 44.44 45.09 45.07 44.96 44.02 43.63 46.75 46.77 47.07 46.78 46.71 43.54 42.40 42.33 41.73 41.29 38.62 35.86 35.03 34.57 34.09 33.19 34.56 34.66 35.05 34.56 33.51 33.37 33.62 34.27 35.96 35.74 35.57 34.73 37.22
46.31 47.41 46.45 48.55 48.53 48.48 46.89 45.19 45.03 41.04 44.66 44.51 44.95 46.77 47.09 47.14 46.94 46.56 44.86 42.48 43.34 42.55 41.30 40.39 38.53 36.26 34.72 33.13 33.12 33.03 34.01 34.80 35.36 34.95 34.55 33.81 34.24 36.17 36.30 36.56 36.93 37.71 38.64
46.02 46.14 48.65 48.66 48.52 47.11 46.12 45.39 45.74 46.57 46.70 47.18 47.29 47.27 47.09 46.77 46.27 46.35 42.74 42.45 42.36 41.16 40.19 38.75 36.84 36.41 34.75 33.50 33.17 32.46 30.83 31.22 32.62 31.80 34.64 37.09 37.66 38.38 38.57 38.57 39.00 37.15 37.25
45.92 48.91 49.45 48.99 47.49 46.72 45.98 44.92 44.53 45.56 45.56 45.97 46.08 46.04 45.81 45.76 45.36 42.51 40.51 41.27 40.33 39.71 39.08 36.93 35.96 35.22 34.74 34.31 33.53 30.89 30.69 30.81 31.47 30.49 32.78 35.14 35.68 36.28 37.33 37.51 38.22 37.78 38.42
MSLP
1014.28 1014.61 1015.05 1015.48 1015.87 1016.16 1016.40 1016.57 1016.72 1016.76 1016.74 1016.81 1016.90 1017.02 1017.31 1017.58 1017.83 1018.15 1018.37 1018.51 1018.63 1018.97 1019.12 1019.35 1019.38 1019.52 1019.79 1019.88 1019.93 1020.03 1020.31 1020.40 1020.81 1020.39 1020.02 1020.05 1019.48 1019.10 1019.18 1018.94 1018.96 1019.04 1019.11
1013.73 1014.07 1014.53 1014.98 1015.40 1015.83 1016.22 1016.46 1016.58 1016.68 1016.70 1016.71 1016.70 1016.73 1016.87 1017.18 1017.44 1017.73 1017.91 1018.18 1018.28 1018.66 1018.77 1019.01 1019.13 1019.35 1019.55 1019.66 1019.62 1019.87 1020.15 1020.20 1020.47 1020.45 1020.14 1020.12 1019.57 1019.25 1019.58 1019.55 1019.42 1019.23 1019.21
1013.74 1014.10 1014.56 1014.86 1015.02 1015.25 1015.49 1015.75 1015.91 1016.02 1016.25 1016.51 1016.59 1016.65 1016.74 1016.81 1017.03 1017.26 1017.37 1017.55 1017.74 1018.06 1018.23 1018.54 1018.78 1019.05 1019.22 1019.21 1019.52 1019.67 1020.07 1020.18 1020.25 1020.52 1020.30 1019.92 1019.74 1019.84 1019.80 1019.74 1019.59 1019.53 1019.27
1013.73 1013.93 1014.29 1014.64 1014.66 1014.72 1014.92 1015.20 1015.37 1015.74 1016.08 1016.17 1016.17 1016.19 1016.33 1016.45 1016.64 1016.88 1017.08 1017.27 1017.30 1017.46 1017.67 1017.94 1018.21 1018.49 1018.73 1018.90 1019.19 1019.34 1019.63 1019.88 1019.96 1019.84 1019.75 1020.21 1020.12 1020.05 1020.06 1020.16 1020.34 1020.06 1019.58
1013.83 1014.06 1014.25 1014.20 1014.35 1014.49 1014.67 1014.86 1015.12 1015.36 1015.61 1015.76 1015.86 1015.92 1016.01 1016.16 1016.21 1016.34 1016.47 1016.61 1016.78 1016.85 1017.16 1017.33 1017.57 1018.11 1018.26 1018.36 1018.59 1019.03 1019.29 1019.41 1019.39 1019.74 1020.00 1020.06 1020.07 1020.11 1020.31 1020.32 1020.41 1020.34 1019.62
1013.88 1014.00 1014.16 1014.28 1014.35 1014.36 1014.44 1014.61 1014.75 1014.97 1015.21 1015.40 1015.43 1015.51 1015.54 1015.59 1015.70 1015.84 1015.97 1016.09 1016.15 1016.23 1016.57 1016.80 1017.18 1017.77 1017.88 1018.08 1018.31 1018.48 1018.70 1018.84 1019.04 1019.52 1019.61 1019.75 1019.64 1019.78 1019.92 1020.10 1020.30 1020.51 1020.28
1014.05 1014.10 1014.29 1014.31 1014.35 1014.22 1014.20 1014.39 1014.50 1014.59 1014.70 1014.84 1014.96 1015.07 1015.16 1015.20 1015.19 1015.24 1015.32 1015.45 1015.44 1015.59 1015.86 1016.25 1016.64 1017.01 1017.40 1017.63 1017.90 1018.01 1018.13 1018.21 1018.26 1018.53 1018.79 1018.83 1019.08 1019.04 1019.24 1019.59 1019.92 1020.16 1020.08
1014.51 1014.40 1014.41 1014.40 1014.33 1014.22 1014.33 1014.45 1014.55 1014.63 1014.71 1014.76 1014.75 1014.69 1014.68 1014.53 1014.56 1014.67 1014.77 1015.01 1015.02 1015.08 1015.34 1015.64 1016.01 1016.50 1016.85 1017.19 1017.44 1017.68 1017.75 1017.63 1017.45 1017.61 1017.71 1017.65 1017.88 1018.04 1018.57 1018.74 1019.23 1019.55 1019.45
1014.80 1014.77 1014.55 1014.50 1014.34 1014.39 1014.30 1014.31 1014.31 1014.33 1014.38 1014.34 1014.25 1014.28 1014.32 1014.16 1014.12 1014.18 1014.45 1014.65 1014.61 1014.70 1014.93 1015.20 1015.60 1016.08 1016.45 1016.87 1017.09 1017.24 1017.24 1017.00 1016.73 1016.83 1016.95 1016.91 1017.13 1017.41 1017.80 1018.56 1019.19 1019.74 1019.65
1014.96 1014.65 1014.23 1014.18 1014.41 1014.43 1014.32 1014.16 1014.10 1013.91 1013.82 1013.82 1013.90 1013.80 1013.66 1013.77 1013.89 1013.93 1014.07 1014.27 1014.21 1014.40 1014.66 1015.05 1015.36 1015.77 1016.17 1016.36 1016.72 1016.89 1016.97 1016.63 1016.50 1016.62 1016.70 1016.71 1016.94 1017.33 1017.50 1017.66 1018.01 1018.80 1019.13
1015.64 1015.65 1014.83 1014.49 1014.50 1014.31 1014.37 1014.29 1014.14 1014.15 1013.94 1013.69 1013.49 1013.29 1013.48 1013.49 1013.54 1013.63 1013.74 1013.88 1013.96 1014.15 1014.34 1014.77 1015.15 1015.59 1015.81 1015.91 1016.14 1016.45 1016.50 1016.47 1016.48 1016.71 1016.77 1016.97 1016.95 1017.20 1017.43 1017.35 1017.38 1017.90 1018.25
1015.12 1015.84 1015.42 1015.26 1014.35 1014.31 1014.38 1014.05 1013.89 1013.84 1013.88 1013.51 1013.34 1013.07 1012.93 1013.16 1013.38 1013.41 1013.55 1013.49 1013.60 1013.90 1014.03 1014.25 1014.66 1015.01 1015.21 1015.36 1015.72 1015.79 1015.87 1016.17 1016.41 1016.74 1016.94 1016.97 1017.05 1016.93 1016.60 1016.63 1016.72 1016.95 1016.92
1015.14 1015.10 1014.93 1014.68 1014.60 1014.23 1014.17 1014.05 1013.70 1013.38 1013.41 1013.29 1013.04 1012.72 1012.46 1012.46 1013.12 1013.39 1013.24 1013.29 1013.41 1013.81 1013.88 1013.98 1014.31 1014.59 1014.90 1015.16 1015.31 1015.42 1015.72 1016.04 1016.33 1016.69 1016.67 1016.64 1016.38 1016.18 1016.10 1016.26 1016.24 1016.47 1016.48
1014.94 1014.67 1014.52 1014.54 1014.35 1013.94 1013.57 1013.28 1013.29 1013.11 1013.07 1012.90 1012.92 1012.37 1012.15 1012.30 1012.51 1012.86 1013.34 1013.36 1013.23 1013.59 1013.87 1013.97 1014.17 1014.44 1014.71 1014.95 1015.04 1014.96 1015.13 1015.33 1015.76 1015.98 1016.05 1016.06 1015.95 1015.92 1015.78 1015.84 1016.11 1016.11 1016.37
1015.28 1015.26 1015.01 1014.74 1014.42 1014.13 1013.73 1013.67 1013.50 1012.92 1012.94 1012.89 1012.49 1012.18 1012.07 1012.02 1012.11 1012.51 1012.66 1012.95 1013.12 1013.22 1013.58 1013.94 1014.24 1014.40 1014.53 1014.57 1014.57 1014.50 1014.56 1014.85 1015.23 1015.16 1015.39 1015.51 1015.62 1015.63 1015.75 1015.65 1015.92 1015.97 1016.43
1015.06 1015.07 1014.99 1014.61 1014.08 1013.70 1013.33 1013.01 1012.42 1012.42 1013.04 1012.50 1012.18 1012.13 1011.60 1011.56 1011.89 1012.18 1012.31 1012.46 1012.71 1012.95 1013.42 1013.68 1014.01 1014.14 1014.16 1014.14 1014.13 1013.88 1013.88 1014.00 1014.28 1014.57 1014.81 1015.12 1015.20 1015.28 1015.35 1015.45 1015.69 1016.07 1016.34
1014.73 1014.61 1014.31 1014.22 1014.04 1013.74 1013.27 1012.93 1012.48 1012.11 1012.83 1011.98 1011.62 1011.23 1011.04 1011.44 1011.43 1011.66 1011.99 1012.28 1012.50 1012.89 1013.21 1013.49 1013.80 1013.85 1013.80 1013.70 1013.57 1013.38 1013.41 1013.30 1013.55 1014.16 1014.61 1014.85 1015.03 1015.30 1015.67 1015.85 1016.17 1016.18 1016.31
1014.30 1014.09 1013.99 1013.76 1013.46 1013.22 1013.40 1012.80 1012.55 1012.53 1012.13 1011.68 1011.58 1011.20 1011.23 1010.95 1011.15 1011.57 1011.96 1012.47 1013.01 1013.21 1013.13 1013.33 1013.43 1013.38 1013.26 1013.26 1013.29 1013.36 1013.63 1013.87 1014.14 1014.34 1014.59 1014.79 1015.00 1015.34 1015.89 1016.30 1016.21 1016.13 1016.23
1013.87 1013.86 1013.61 1013.24 1012.94 1012.67 1012.58 1012.50 1012.24 1012.14 1011.90 1011.60 1011.41 1011.68 1011.60 1011.50 1010.95 1011.01 1012.09 1012.25 1012.70 1012.87 1012.89 1013.08 1012.95 1012.92 1013.14 1013.15 1013.44 1013.63 1013.89 1014.31 1014.64 1014.97 1015.33 1015.47 1015.69 1015.83 1016.00 1015.93 1015.98 1016.14 1016.19
1013.54 1013.49 1013.19 1012.80 1012.49 1012.33 1012.13 1012.15 1012.25 1011.93 1011.76 1011.81 1011.62 1011.49 1011.34 1011.75 1011.67 1011.76 1011.99 1012.39 1012.60 1012.58 1012.80 1012.61 1012.44 1012.62 1012.98 1013.38 1013.70 1014.10 1014.56 1014.93 1015.26 1015.53 1015.77 1015.93 1016.08 1016.16 1016.26 1016.18 1016.12 1016.05 1015.92
1013.10 1013.03 1012.76 1012.46 1012.00 1012.04 1011.79 1011.98 1011.85 1011.46 1010.95 1010.92 1010.96 1010.98 1010.76 1011.26 1011.42 1011.63 1011.84 1012.26 1012.37 1012.72 1012.64 1012.61 1012.75 1013.19 1013.67 1014.04 1014.31 1014.72 1015.07 1015.38 1015.61 1015.84 1016.03 1016.19 1016.26 1016.40 1016.32 1016.11 1016.09 1016.03 1016.02
1012.94 1012.65 1012.24 1011.89 1011.63 1011.59 1011.73 1011.48 1011.12 1010.88 1010.88 1010.64 1010.78 1010.95 1010.98 1011.04 1011.31 1011.64 1011.96 1012.05 1012.10 1012.54 1012.89 1013.01 1013.59 1014.00 1014.30 1014.53 1014.84 1015.20 1015.50 1015.68 1015.93 1016.11 1016.27 1016.31 1016.31 1016.31 1016.26 1016.18 1016.16 1016.12 1016.07
1012.43 1012.20 1011.81 1011.55 1011.59 1011.75 1011.62 1011.46 1011.23 1011.05 1010.93 1010.78 1010.77 1011.00 1011.09 1011.00 1011.19 1011.56 1011.77 1011.97 1012.30 1012.78 1013.24 1013.40 1013.97 1014.52 1014.90 1015.07 1015.22 1015.32 1015.59 1015.79 1015.93 1016.12 1016.29 1016.27 1016.21 1016.23 1016.24 1016.25 1016.19 1016.10 1016.01
1011.83 1011.73 1011.62 1011.34 1011.27 1011.12 1011.52 1011.56 1011.34 1011.28 1010.92 1010.70 1010.71 1010.86 1011.18 1011.34 1011.67 1012.14 1012.30 1012.55 1012.76 1013.19 1013.43 1013.77 1014.23 1014.74 1015.22 1015.49 1015.72 1015.89 1015.74 1015.77 1015.92 1016.15 1016.20 1016.27 1016.39 1016.36 1016.40 1016.30 1016.12 1016.02 1015.94
1011.33 1011.47 1011.18 1011.22 1011.34 1011.54 1012.07 1011.98 1011.88 1011.55 1011.24 1011.08 1011.22 1011.66 1011.97 1012.20 1012.51 1012.42 1012.38 1012.76 1013.07 1013.57 1013.99 1014.27 1014.73 1015.06 1015.33 1015.78 1016.02 1015.96 1016.15 1016.19 1016.23 1016.40 1016.34 1016.32 1016.47 1016.31 1016.13 1015.98 1015.82 1015.69 1015.49
1010.89 1011.10 1011.01 1011.09 1011.45 1011.87 1011.96 1012.51 1012.64 1012.54 1012.52 1012.52 1012.58 1012.62 1012.69 1012.60 1012.54 1012.47 1012.83 1012.99 1013.52 1014.00 1014.50 1014.88 1015.18 1015.44 1015.76 1015.89 1016.07 1016.37 1016.52 1016.48 1016.41 1016.42 1016.53 1016.65 1016.58 1016.44 1016.20 1015.95 1015.70 1015.54 1015.35
Wind_Speed
9 8 7 6 6 5 5 5 5 4 5 6 7 8 8 7 6 6 6 5 6 5 4 5 5 3 3 2 1 1 1 2 2 3 2 2 2 4 5 4 2 1 3
7 6 7 6 6 5 4 4 4 4 4 5 5 7 7 7 7 8 7 7 7 7 7 5 5 3 4 3 1 2 1 1 2 4 2 1 1 5 1 4 3 3 2
6 6 4 5 6 6 5 4 5 6 6 5 5 6 6 8 8 8 9 8 7 7 7 6 6 6 4 2 1 1 1 2 2 2 3 1 2 0 2 2 3 3 4
6 6 6 6 7 6 6 7 7 5 5 6 6 6 6 6 6 7 9 8 7 7 8 7 7 7 6 5 3 2 2 2 3 3 1 3 1 1 1 1 3 2 4
5 6 6 6 5 6 6 5 4 5 5 5 5 6 6 6 6 8 9 8 10 9 7 7 6 7 10 7 3 2 3 4 1 3 2 2 2 1 2 1 2 2 4
4 6 5 4 5 6 6 5 5 5 5 5 6 6 7 6 9 11 10 9 10 9 8 7 6 13 8 6 6 8 7 5 4 3 3 4 3 3 3 3 1 2 3
5 4 4 3 2 1 4 5 5 6 5 7 7 6 7 6 10 12 14 10 9 8 10 8 8 7 8 6 9 8 7 9 10 5 6 6 4 6 5 3 3 3 4
4 3 1 1 0 2 3 2 3 2 5 5 6 6 7 7 10 10 11 8 6 8 10 10 12 10 8 7 5 5 6 6 6 6 8 8 7 4 5 6 5 3 4
3 2 3 4 2 1 4 5 5 4 5 5 5 7 7 6 10 10 6 6 7 8 8 10 10 7 9 11 6 6 5 6 6 13 12 12 9 10 8 5 2 2 3
4 2 1 2 3 4 5 5 5 4 5 4 6 6 7 7 7 8 6 4 6 5 6 7 10 8 11 11 6 5 6 7 4 3 2 2 5 4 11 7 5 5 3
8 9 6 5 5 5 5 3 4 6 6 6 6 5 6 6 6 8 9 5 5 5 6 6 5 11 10 10 9 5 6 3 4 3 2 3 3 3 5 6 5 5 4
4 5 11 12 8 8 7 5 5 5 6 7 5 5 4 3 7 6 9 10 7 6 7 5 6 11 12 9 5 9 10 6 3 3 2 3 3 4 5 6 7 7 5
5 6 6 4 7 8 7 8 5 5 4 7 5 5 5 3 4 8 9 10 9 4 3 6 8 9 6 3 6 7 5 4 4 3 4 4 3 4 3 1 3 5 6
7 7 6 5 8 8 7 5 4 5 5 4 6 6 4 3 4 3 3 5 5 5 5 3 3 4 5 4 5 5 4 5 5 5 5 4 3 2 3 3 3 2 2
5 5 6 5 6 6 5 4 6 6 2 5 6 4 4 4 3 7 7 5 6 5 3 1 1 1 2 3 4 5 4 4 5 5 4 4 4 2 3 2 2 1 0
3 3 4 4 3 2 2 6 5 8 12 6 7 4 2 2 5 9 9 10 11 10 3 3 2 3 4 4 4 6 4 6 5 5 4 4 3 3 3 1 2 3 3
5 5 5 5 4 5 5 5 4 5 7 7 6 6 6 5 8 9 9 8 7 7 2 2 3 4 4 4 5 3 2 1 3 3 3 3 2 2 4 3 2 3 2
6 10 4 4 5 4 7 5 4 5 5 4 3 4 5 7 8 7 8 9 2 1 2 2 4 4 4 4 1 1 2 3 3 3 3 3 4 4 4 3 1 2 2
5 4 5 5 4 5 4 5 3 3 3 3 2 4 2 6 9 15 7 2 2 2 2 4 4 4 1 2 3 4 4 3 4 5 4 4 4 3 3 3 3 3 2
4 9 9 5 4 5 3 3 5 5 4 4 4 3 3 2 1 1 3 2 2 2 3 4 1 3 5 4 4 5 5 5 4 4 4 4 3 3 2 2 1 1 1
4 4 8 5 5 4 4 3 4 5 5 4 3 3 7 2 4 4 4 3 3 1 1 4 6 6 5 4 5 5 5 4 4 4 4 3 3 2 2 2 0 1 0
4 5 5 5 3 3 1 2 3 3 4 3 1 1 6 5 5 3 3 3 3 3 3 6 6 5 4 5 5 5 4 4 4 4 4 3 3 3 2 2 2 2 1
4 6 5 1 4 2 1 2 3 3 3 2 3 4 4 5 6 5 4 4 5 6 4 7 7 5 4 4 4 4 5 4 5 4 4 4 2 3 3 2 2 2 3
5 6 1 3 3 3 3 3 3 4 3 0 4 5 4 6 8 4 1 3 6 5 5 5 5 7 5 5 4 3 3 4 4 4 5 3 2 2 1 2 3 3 3
5 2 4 3 4 6 2 2 4 5 7 8 9 9 6 6 2 3 4 4 6 6 6 6 5 7 7 7 6 7 5 4 5 4 2 1 1 4 3 3 3 3 2
3 4 4 4 5 3 4 3 3 4 4 4 4 2 2 2 4 1 3 6 6 6 6 5 6 8 7 6 8 6 4 4 4 5 3 3 3 4 4 3 4 1 2
Wind_Direction
187 186 191 195 206 201 205 216 229 230 206 200 197 193 194 194 191 186 205 196 189 201 213 226 239 194 199 199 44 55 116 146 180 301 38 277 270 37 350 19 84 197 271
188 174 183 183 188 171 186 203 219 251 241 224 208 202 194 194 181 197 198 203 195 206 220 217 228 224 220 193 127 56 241 195 149 236 266 286 92 62 18 48 25 29 321
158 154 159 175 171 188 206 211 210 209 219 243 223 216 208 202 196 203 208 211 208 207 214 206 213 204 209 188 196 108 224 176 184 181 260 307 60 345 49 352 6 336 304
166 157 167 183 201 207 208 200 210 201 220 231 229 214 210 208 208 209 214 221 222 211 214 212 209 194 189 179 201 196 219 268 224 234 30 252 202 245 61 69 332 316 291
168 174 214 212 211 216 217 213 209 198 214 219 220 225 226 229 226 218 220 211 220 224 222 200 169 191 175 144 132 238 225 242 254 234 224 252 220 227 209 213 242 274 285
183 191 209 224 243 228 219 216 214 215 220 219 226 223 225 227 232 230 221 226 222 226 208 176 168 191 171 178 219 226 224 213 216 196 203 222 225 210 188 187 183 3 318
151 148 172 182 206 271 219 210 224 215 207 223 231 225 237 238 236 237 232 237 230 210 205 193 182 185 176 194 214 235 231 230 233 214 222 215 206 208 182 159 198 204 234
75 99 174 159 319 321 313 274 269 269 246 242 251 233 232 243 238 238 242 240 220 212 207 186 183 180 187 196 207 226 230 238 242 226 214 234 211 193 200 169 185 223 286
89 132 170 167 152 241 238 243 239 229 238 235 230 242 240 253 227 234 221 219 226 220 197 187 183 174 187 218 216 233 257 264 237 242 223 232 217 193 169 121 201 165 279
325 283 27 309 308 296 278 264 255 237 242 244 257 245 231 245 251 245 203 223 211 198 180 176 177 195 199 218 213 222 247 263 272 280 287 300 232 201 184 189 173 202 195
1 341 359 4 334 314 301 290 300 281 274 266 258 251 252 248 252 231 202 199 212 191 179 177 192 214 230 234 231 231 221 204 247 242 281 294 297 239 221 226 192 180 192
88 329 350 341 352 328 297 290 282 272 273 271 261 269 237 259 259 223 221 213 182 187 189 178 191 209 229 229 224 231 229 201 190 232 263 264 235 262 243 210 210 215 213
257 260 244 229 262 272 280 282 281 286 271 273 251 249 253 193 231 236 214 203 183 189 179 180 190 210 242 283 264 249 212 201 193 209 230 247 222 242 232 221 238 245 249
250 245 267 282 290 292 273 255 255 265 273 267 257 245 238 220 199 185 212 209 187 182 178 171 193 226 240 239 269 233 208 198 192 210 221 223 253 239 218 180 209 208 218
261 280 292 278 276 285 297 293 310 296 305 273 267 250 213 237 236 206 185 184 199 186 164 160 250 259 265 253 262 247 227 191 206 211 211 214 238 211 240 190 229 123 94
229 254 254 262 278 261 266 303 225 233 298 263 260 249 267 222 202 202 198 182 181 161 171 189 229 234 255 266 253 260 207 210 211 200 205 194 223 199 194 126 112 119 110
223 253 266 257 281 288 287 251 275 320 248 233 264 239 222 245 213 189 184 181 170 136 182 185 232 242 253 260 265 236 231 222 166 178 177 185 154 91 119 92 82 95 124
256 263 272 260 258 278 287 302 311 260 267 269 252 314 255 198 180 162 140 122 112 54 149 225 253 249 257 272 205 202 112 93 88 106 104 109 110 115 119 140 153 137 158
271 274 270 262 253 242 263 281 253 261 260 232 222 236 353 301 182 133 166 135 174 175 216 245 236 245 279 124 117 112 110 101 100 100 89 92 92 112 129 147 148 169 203
272 262 260 276 298 284 259 227 241 253 249 272 278 253 132 175 178 115 122 102 222 243 277 281 236 131 106 105 98 96 91 91 100 101 107 105 104 109 108 93 60 326 210
257 252 253 276 259 274 230 239 280 301 276 242 239 212 155 155 149 137 131 195 247 294 40 92 82 80 79 82 89 90 90 105 117 116 107 110 120 111 151 113 139 262 164
285 268 276 273 309 294 33 286 289 300 298 275 135 121 139 126 100 127 160 228 227 125 106 106 93 93 98 103 107 107 116 132 129 122 125 134 134 134 113 73 44 32 23
284 283 289 2 94 130 308 331 331 331 298 265 144 143 139 146 105 78 47 67 113 119 119 107 111 98 85 88 93 116 130 143 148 143 145 145 135 74 54 41 24 16 12
279 291 350 152 152 68 30 356 5 323 314 108 140 114 82 99 100 128 353 128 122 112 110 110 112 118 113 90 79 95 95 101 131 145 140 123 93 57 331 301 288 273 258
265 282 151 142 71 86 44 31 12 20 61 76 82 90 110 112 114 317 129 134 120 112 103 102 101 113 105 114 113 91 77 81 95 95 100 148 311 319 314 299 297 313 284
256 153 131 145 117 103 115 82 40 29 34 77 98 82 37 358 325 71 126 110 107 101 102 97 106 105 110 95 92 96 88 84 73 49 19 28 359 323 305 292 296 288 301